Regional Weather Roundup
Issued by NWS Cleveland, OH

Home | Current Version | Previous Version | Graphics & Text | Print | Product List | Glossary On
Versions: 1 2 3 4 5 6 7 8 9 10 11 12 13 14 15 16 17 18 19 20 21 22 23 24 25 26 27 28 29 30 31 32 33 34 35 36 37 38 39 40 41 42 43 44 45 46 47 48 49 50
000
ASUS41 KCLE 222310
RWRCLE
OHIO REGIONAL WEATHER ROUNDUP
NATIONAL WEATHER SERVICE CLEVELAND, OH
700 PM EDT SUN OCT 22 2017

NOTE: "FAIR" INDICATES FEW OR NO CLOUDS BELOW 12,000 FEET WITH NO
SIGNIFICANT WEATHER AND/OR OBSTRUCTIONS TO VISIBILITY.

OHZ001>008-015>018-024>027-034-035-043-044-230000-
   NORTHWEST OHIO

CITY           SKY/WX    TMP DP  RH WIND       PRES   REMARKS
DEFIANCE       CLEAR     73  53  49 S12       30.04S
FINDLAY        PTCLDY    71  49  45 S14       30.06S
TOLEDO EXPRESS CLEAR     74  54  49 S7        30.04S
TOLEDO EXEC    PTCLDY    73  52  47 S12       30.06S
LIMA           CLOUDY    70  49  47 S13       30.07S
$$

OHZ009>014-019>023-028>033-038-089-230000-
   NORTHEAST OHIO

CITY           SKY/WX    TMP DP  RH WIND       PRES   REMARKS
CLE-HOPKINS    CLOUDY    72  46  39 S9        30.14S
CLE-LAKEFRONT  CLOUDY    74  47  38 S7        30.11R
CUY CO. ARPT   PTCLDY    72  50  46 S8        30.14R
LORAIN-ELYRIA  CLOUDY    69  42  37 S7        30.12S
ASHTABULA      CLOUDY    69  50  50 S7        30.16S
AKRON-CANTON   MOCLDY    68  49  50 SE8       30.16S
WOOSTER        CLOUDY    60  47  61 SE5       30.15F HAZE
MANSFIELD      PTCLDY    69  50  50 SE10      30.14F
YOUNGSTOWN     MOCLDY    67  48  50 SE5       30.18R
$$

OHZ042-051>053-060>062-070>072-077>081-230000-
  SOUTHWEST OHIO

CITY           SKY/WX    TMP DP  RH WIND       PRES   REMARKS
CINC-COVINGTON MOCLDY    68  54  60 SE9       30.08F
CINC-LUNKEN    MOCLDY    68  52  56 SE5       30.09F
HAMILTON       CLOUDY    71  51  49 SE5       30.09F
DAYTON         MOCLDY    67  51  56 SE7       30.10F
WRIGHT-PAT AFB PTCLDY    69  46  43 SE8       30.10
DAYTON GENERAL PTCLDY    68  49  50 S9        30.09F
WILMINGTON     MOCLDY    67  49  52 S5        30.12F
$$

OHZ036-037-039>041-045>050-054>059-063>069-073>076-082>088-230000-
  CENTRAL AND SOUTHEAST OHIO

CITY           SKY/WX    TMP DP  RH WIND       PRES   REMARKS
COLUMBUS       CLOUDY    71  51  49 S3        30.12F
OSU AIRPORT    PTCLDY    70  50  49 S6        30.12F
BOLTON FIELD   CLEAR     68  50  52 S5        30.14S
RICKENBACK AFB CLOUDY    67  49  52 SE3       30.13S
NEWARK         CLOUDY    67  50  54 CALM      30.13F
MARION         MOCLDY    68  47  46 S7        30.12S
LANCASTER      PTCLDY    64  53  67 CALM      30.14F
ZANESVILLE     CLOUDY    70  49  47 CALM      30.15F
NEW PHILLY     NOT AVBL
$$




USA.gov is the U.S. government's official web portal to all federal, state and local government web resources and services.